User: anonymous   Login
Location: Columbia
(38.9520°N, 92.3340°W)
Time: 20:50:11
(UTC-05:00)
Language:

Iridium 52 - Orbit

View from above orbital plane
View from above orbital plane
View from above satellite
View from above satellite

Ground track
Ground track

The orbit data is extracted from the following two-line orbital elements,

1 25169U 98010A   16208.38300765  .00000183  00000-0  58447-4 0  9994
2 25169  86.3994 126.6000 0002269  85.8943 274.2512 14.34216428965081
Epoch (UTC): 26 July 2016 09:11:31
Eccentricity: 0.0002269
inclination: 86.3994°
perigee height: 776 km
apogee height: 779 km
right ascension of ascending node: 126.6000°
argument of perigee: 85.8943°
revolutions per day: 14.34216428
mean anomaly at epoch: 274.2512°
orbit number at epoch: 96508

The dashed part of the orbit path shows where the satellite is in the earth's shadow,  

DLR